Location: Banska Bystrica
(0.0000°N, 19.1500°E)
Time: 23:03:17
(UTC+01:00)

Ariane H10-3 - Pass Details

Date: 19 February 2019
Orbit: 365 x 34236 km, 4.4° (Epoch: 24 March)

Event Time Altitude Azimuth Distance (km) Brightness Sun altitude
Rises 18:08:33 0° 266° (W) 14,342 12.7 -2.8°
Reaches altitude 10° 18:27:36 10° 266° (W) 7,933 10.4 -7.4°
Maximum altitude 18:44:11 84° 354° (N) 974 4.0 -11.5°
Enters shadow 18:46:58 18° 81° (E) 1,526 4.4 -12.2°
